Погода в Новосельском

Россия / Приморский край     44°46′28″N   132°41′37″E
темп.,
°C
ветер,
м/с
пор.,
м/с
влажн.,
%
обл.,
%
осадки,
мм/ч
давл.,
гПа
погр.,
м
23 апреля, пт
пт2301:00+9юз61540100 0.0 1024370
04:00+9ююз71640100 0.0 1025376
07:00+8ююз51244100 0.0 1025282
10:00+11юз6837100 0.0 1025344
13:00+14юз4439100 0.0 1025385
16:00+15з2242100 0.0 1024330
19:00+13с2351100 0.0 102479
22:00+11ссз2365100 0.0 102452
24 апреля, сб
сб2401:00+10ссз2281100 0.0 102451
04:00+8с3486100 0.0 102393
07:00+8ссв5862100 0.0 1024391
10:00+5ссз4867100 0.1 1025431
13:00+5с3870100 0.2 1025750
16:00+5юз4462100 0.8 1023332
19:00+5ююз32567 0.1 1022167
22:00+3ююз36710 0.1 102294
25 апреля, вс
вс2501:00+2юз34730 0.0 102251
04:00+1юз46715 0.0 102176
07:00+1юз4865100 0.0 1019162
10:00+7сз713458 0.0 10201497
13:00+8ссз813334 0.0 10202021
16:00+9ссз712280 0.0 10202140
19:00+7ссз410390 0.0 1021416
22:00+5ссз23390 0.0 102220
26 апреля, пн
пн2601:00+3юз22430 0.0 102312
04:00+2юз33470 0.0 102337
07:00+2ююз48460 0.0 1022142
10:00+9юз68321 0.0 1021511
13:00+13юз57285 0.0 10191211
16:00+15юз78280 0.0 10161463
19:00+12ююз813343 0.0 1015581
22:00+8ю715486 0.0 1016484
27 апреля, вт
вт2701:00+8ю71762100 0.0 1016554
04:00+8ю71672100 0.0 1014526
07:00+8ю7167637 0.0 1013515
10:00+13ююз91364100 0.0 1012741
13:00+16ююз10135794 0.0 10101203
16:00+16ююз111655100 0.0 10081336
19:00+11юз71383100 0.6 1008543
22:00+10ююз81487100 2.8 1009439